Location: Hopkins Observatory
(42.6965°N, 73.1843°W)
Time: 03:09:49
(UTC-05:00)

UOSAT-12 - Visible Passes

Search period start: 04 December 2016 00:00
Search period end: 14 December 2016 00:00
Orbit: 616 x 637 km, 64.6° (Epoch: 03 December)

Date Brightness Start Highest point End Pass type
(mag) Time Alt. Az. Time Alt. Az. Time Alt. Az.
04 Dec 10.0 03:42:14 12° NE 03:42:14 12° NE 03:43:16 10° ENE visible
04 Dec 7.4 05:19:34 25° NNW 05:22:11 66° NE 05:26:44 10° SE visible
05 Dec 9.3 04:02:06 21° NE 04:02:06 21° NE 04:05:04 10° E visible
05 Dec 7.2 05:39:26 24° NW 05:42:00 59° WSW 05:46:31 10° SSE visible
06 Dec 8.4 04:22:02 37° ENE 04:22:02 37° ENE 04:26:00 10° ESE visible
06 Dec 8.2 05:59:22 18° WNW 06:01:40 27° WSW 06:05:31 10° S visible
07 Dec 7.3 04:42:03 71° ESE 04:42:03 71° ESE 04:46:17 10° SE visible
07 Dec 9.1 06:19:23 10° W 06:21:09 13° WSW 06:23:05 10° SW visible
08 Dec 10.3 03:24:49 10° E 03:24:49 10° E 03:24:51 10° E visible
08 Dec 7.6 05:02:09 45° SSW 05:02:09 45° SSW 05:05:54 10° SSE visible
09 Dec 9.9 03:44:59 14° ESE 03:44:59 14° ESE 03:45:39 10° ESE visible
09 Dec 8.7 05:22:20 21° SW 05:22:20 21° SW 05:24:42 10° SSW visible
09 Dec 9.9 19:27:55 10° SSW 19:27:58 10° SSW 19:27:58 10° SSW visible
10 Dec 9.7 04:05:14 13° SSE 04:05:14 13° SSE 04:05:47 10° SSE visible
10 Dec 8.9 18:09:06 10° SSE 18:10:51 18° SE 18:10:51 18° SE visible
10 Dec 10.1 19:48:00 10° SW 19:48:12 11° WSW 19:48:12 11° WSW visible
11 Dec 7.9 18:27:50 10° S 18:31:00 38° SSE 18:31:00 38° SSE visible
12 Dec 9.1 17:10:58 10° SE 17:12:30 12° ESE 17:13:46 10° E visible
12 Dec 7.5 18:47:24 10° SW 18:51:05 59° SW 18:51:05 59° SW visible
13 Dec 8.2 17:28:16 10° S 17:31:58 26° ESE 17:33:46 20° ENE visible
13 Dec 8.5 19:07:38 10° WSW 19:11:06 36° WNW 19:11:06 36° WNW visible
